STARLINK-31529, 59000

Orbit data source: Space-Track

STARLINK-31529, 59000 is a payload satellite owned by SpaceX/Seattle (US) in LEO that was launched on Fri, 23 Feb 2024 UTC via an FALCON 9 launch vehicle from the Air Force Western Test Range (AFWTR). Payload-class satellites include a variety of spacecraft equipped with specific instruments for various scientific and technological missions. These include communications satellites like Starlink; space stations such as the ISS; scientific satellites like the Hubble; Earth observation satellites from companies like Planet Labs, Umbra, and HawkEye 360; GPS; miniature CubeSats for education and research; and military/defense satellites.

Loading next visibility...
Identifier
59000, 2024-036C
Orbit
LEO
Country
Flag of USUS
Related business
Manufacturer
SpaceX/Seattle
Mission
Operational Commercial Communications
Bus & Motor
STARLINK V2M, Unknown motor
Mass
730 kg wet, ~700 kg dry
Launch date (UTC)
2024-02-23 (2 years ago)
Launch vehicle
FALCON 9
Launch site
Air Force Western Test Range (AFWTR)
Object type
Payload
Rocket body
Debris
Shape & HBR
Box + 2 Pan, 17.7 m
Radar Cross Section
33.884 m², Large (>1 m²)

Expand to show TLE details & history
Last TLE update: 3 days ago

TLE from 3 days ago
0 STARLINK-31529
1 59000U 24036C   26170.83779659  .00001420  00000-0  60021-4 0  9999
2 59000  53.1616 321.4637 0001007  95.4211 264.6905 15.30210895130914
Epoch: 2026-06-19T20:06Z
TLE epoch observation values (Epoch: 2026-06-19T20:06:25.625Z)
Latitude
0.00001°
Longitude
111.7959°
Altitude
476.146 km
Speed
7.629 km/s
True Right ascension
21h 25m 51s
True Declination
0° 00' 00"
Sunlit
Object was in full shadow at epoch
Visualization orbit readout
Latitude
Unknown
Longitude
Unknown
Altitude
Unknown
Speed
Unknown
Apparent Right ascension
Unknown
Apparent Declination
Unknown
Sunlit
N/A
Visualization observer readout
Local Sidereal Time
21:25:05
Azimuth
Unknown
Elevation
Unknown
Doppler factor
Unknown
Orbital elements
Apogee altitude
476.129 km
Perigee altitude
474.749 km
Semi-major axis
6,853.576 km
Eccentricity
0.0001
Inclination
53.1616°
RAAN
321.4637°
Arg. of periapsis
95.4211°
True anomaly
264.67901°
Mean anomaly
264.6905°
Eccentric anomaly
264.68476°
Mean motion
3.82532 °/min
Orbital period
94.11 mins
BSTAR
0.000060021
Loading maneuver chart data...
Computing Atmospheric mass density...
Loading historical data...
Loading historical data...
Loading historical data...
Loading historical data...
Loading historical data...
Loading historical data...
Loading historical data...

Documentation

Showing up to 5 results
|